GEFSCGP_con_probscp_120.txt.gz
Probability
0 0 0 0 0 0 0 0 0 0 0 0 0 0 1 2 3 6 10 13 14 16 14 10 6 4 3 3 8 13 13 10 6 6 6 4 2 3 3 3 1 0 0 0
0 0 0 0 0 0 0 0 0 0 0 0 0 0 0 1 2 6 10 12 13 14 13 9 5 3 3 3 6 11 12 9 5 5 4 3 2 3 3 2 1 0 0 0
0 0 0 0 0 0 0 0 0 0 0 0 0 1 1 0 2 6 9 11 13 13 12 7 3 1 2 2 4 7 9 7 5 4 2 1 2 2 1 1 1 0 0 0
0 0 0 0 0 0 0 0 0 0 0 0 0 1 1 1 3 7 9 11 13 13 11 7 2 1 1 1 2 4 6 6 5 3 1 0 1 1 0 0 0 0 0 0
0 0 0 0 0 0 0 0 0 0 0 0 0 0 1 2 3 6 8 11 12 12 10 6 3 2 1 1 2 3 3 3 3 1 0 0 0 0 0 0 0 0 0 0
0 0 0 0 0 0 0 0 0 0 0 0 0 0 1 1 1 2 5 9 11 10 6 3 2 1 1 1 2 2 1 1 1 0 0 0 0 0 0 0 0 0 0 0
0 0 0 0 0 0 0 0 0 0 0 0 0 0 0 0 0 1 3 7 9 7 4 2 1 0 0 0 1 1 0 0 0 0 0 0 0 0 0 0 0 0 0 0
0 0 0 0 0 0 0 0 0 0 0 0 0 0 0 0 0 0 2 5 7 6 5 4 2 0 0 0 0 0 0 1 0 0 0 0 0 0 0 0 0 0 0 0
0 0 0 0 0 0 0 0 0 0 0 0 0 0 0 0 0 0 2 4 6 6 6 4 2 0 0 0 0 0 0 0 0 0 0 0 0 0 0 0 0 0 0 0
0 0 0 0 0 0 0 0 0 0 0 0 0 0 0 0 0 0 2 5 7 6 5 3 1 0 0 0 0 0 0 0 0 0 0 0 0 0 0 0 0 0 0 0
0 0 0 0 0 0 0 0 0 0 0 0 0 0 0 0 0 0 1 4 7 7 3 1 1 0 0 0 0 0 0 0 0 1 1 1 0 0 0 0 0 0 0 0
1 0 0 0 0 1 0 0 0 0 0 0 0 0 0 0 0 0 0 2 6 6 3 1 0 0 0 0 0 0 0 0 0 1 2 2 1 0 0 0 0 0 0 0
3 2 1 0 0 0 0 0 0 0 0 0 0 0 0 0 0 0 0 1 4 6 4 1 0 0 0 0 0 0 0 0 0 1 3 4 3 2 1 1 0 0 0 0
5 4 2 1 0 0 0 0 0 0 0 0 0 0 0 0 0 0 0 0 3 6 5 2 0 0 0 0 0 0 0 1 2 3 5 6 7 5 4 3 1 0 0 0
6 4 3 2 0 0 0 0 0 0 0 0 0 0 0 0 0 0 0 0 3 5 6 5 2 1 1 2 3 2 2 3 6 8 9 9 9 9 8 7 4 1 1 1
6 4 3 2 0 0 0 0 0 0 0 0 0 0 1 0 0 0 0 1 3 5 7 6 6 6 7 9 10 7 5 6 9 13 15 15 14 12 10 9 6 4 3 2
6 4 3 1 0 0 0 0 0 0 0 0 1 1 2 1 0 0 0 1 3 4 5 6 9 12 15 16 16 14 11 11 13 17 19 21 20 16 12 10 8 6 4 4
6 5 3 1 0 0 0 0 0 0 0 0 1 2 1 0 0 0 0 1 2 2 3 5 9 15 18 20 22 23 23 21 20 21 22 23 22 19 14 11 9 7 6 6
5 5 3 1 1 0 0 0 0 0 0 0 1 1 0 0 1 1 1 1 2 3 6 8 10 15 22 26 29 33 34 30 26 24 24 24 22 18 15 12 10 8 8 8
2 3 2 2 1 1 0 0 0 0 1 1 0 0 0 1 3 3 3 4 6 10 13 15 17 22 30 35 38 40 37 32 27 24 24 24 20 15 14 14 12 11 10 9
1 1 1 1 1 1 2 2 2 4 5 4 2 2 3 4 6 6 6 9 12 15 17 20 26 34 40 43 46 45 38 30 25 23 23 22 16 11 10 14 15 14 12 11
1 2 2 1 1 2 3 3 4 7 7 5 3 4 6 8 7 6 7 11 15 15 15 20 30 39 42 43 46 45 38 28 23 21 21 19 14 8 7 12 16 14 11 9
2 4 5 3 2 3 2 3 4 5 5 3 2 4 7 8 6 5 7 12 16 16 16 21 28 35 37 38 40 39 34 27 22 20 18 17 14 9 7 10 10 8 6 5
2 3 4 2 2 2 2 3 3 3 2 1 1 3 5 5 4 5 10 16 17 18 19 21 26 30 31 32 32 32 30 26 21 18 16 14 12 8 8 7 4 3 2 2
0 1 1 1 1 1 2 2 2 2 1 1 2 3 4 5 5 7 12 16 15 14 16 18 22 25 26 27 26 24 23 22 19 14 11 9 7 6 6 3 1 0 1 2
0 0 1 1 1 1 1 1 1 2 1 1 2 3 4 6 7 8 12 14 12 11 13 16 20 22 22 23 22 19 19 19 16 12 8 5 3 4 4 1 0 0 1 1

GEFSCGP_con_probscp_126.txt.gz
Probability
0 0 0 0 0 0 0 0 0 0 0 0 2 7 13 16 17 20 31 40 40 36 31 28 29 29 31 33 34 37 40 41 40 37 34 27 16 8 5 4 3 2 2 2
0 0 0 0 0 0 0 0 0 0 0 0 1 6 12 16 17 20 29 37 37 33 29 26 25 25 25 25 26 29 31 32 31 30 27 22 13 7 5 4 3 2 1 1
0 0 0 0 0 0 0 0 0 0 0 0 1 4 10 15 17 20 25 31 31 28 26 23 21 19 17 16 17 20 22 24 25 23 19 12 7 5 4 4 3 2 1 1
0 0 0 0 0 0 0 0 0 0 0 0 0 3 8 14 19 23 25 27 28 25 22 20 16 14 12 11 14 19 22 24 23 19 13 6 3 3 4 4 3 2 1 1
0 0 0 0 0 0 0 0 0 0 0 0 0 1 4 11 21 26 27 28 28 24 20 17 14 12 11 11 15 20 23 23 20 15 9 3 1 2 3 3 3 2 1 1
0 0 0 0 0 0 0 0 0 0 0 0 0 0 2 7 16 23 26 28 28 24 19 16 15 13 12 13 16 18 20 19 16 10 5 1 1 3 4 3 2 1 1 1
0 0 0 0 0 0 0 0 0 0 0 0 0 0 1 4 9 15 22 27 28 24 20 18 16 14 13 14 16 16 15 15 12 7 3 1 2 5 5 2 1 0 0 0
0 0 0 0 0 0 0 0 0 0 0 0 0 0 1 4 6 9 15 22 25 25 22 19 16 14 14 15 15 13 12 12 10 7 4 2 4 5 4 1 0 0 0 0
0 0 0 0 0 0 0 1 1 1 0 0 0 1 3 5 6 5 9 16 20 23 23 20 16 14 14 14 11 10 10 10 9 7 6 4 4 4 2 0 0 0 0 0
0 0 0 0 0 0 0 1 2 1 0 0 0 1 3 5 5 4 6 12 18 21 22 19 16 14 12 10 7 7 8 8 7 6 5 4 4 4 3 2 1 2 2 2
1 0 0 0 1 0 0 1 1 1 0 0 0 0 2 3 4 3 5 10 16 20 20 20 18 13 9 6 5 6 7 8 7 5 4 3 3 5 5 4 4 5 4 4
2 1 1 1 0 0 0 0 0 0 0 0 0 0 0 1 1 2 3 7 14 18 20 22 21 15 9 5 5 6 8 9 8 5 5 5 5 7 9 8 7 7 6 5
3 3 2 1 0 0 1 1 0 0 0 0 0 0 0 1 1 2 3 7 14 18 21 23 24 20 12 8 8 9 11 11 10 8 7 8 10 12 13 13 11 9 7 5
5 4 2 0 0 0 1 1 0 0 0 0 0 1 2 4 4 3 4 8 14 20 24 29 31 27 21 17 16 16 16 15 14 13 13 16 20 20 18 17 15 12 8 5
8 6 4 2 1 0 1 1 0 0 0 0 0 1 3 5 5 4 4 7 14 21 28 37 41 38 32 28 24 23 23 23 23 23 24 28 30 27 24 22 18 14 9 7
9 11 9 5 2 1 0 0 0 0 0 0 1 2 3 4 4 5 6 10 16 23 31 41 48 49 44 38 33 31 32 34 35 34 32 34 36 33 29 26 22 17 14 12
8 11 12 7 3 1 0 0 0 0 0 0 2 5 6 6 6 10 16 19 23 29 37 45 52 55 54 49 44 42 41 43 44 41 38 37 38 37 32 28 26 24 22 21
6 8 10 8 4 1 0 1 1 1 3 4 7 12 13 11 14 20 27 30 33 40 48 54 57 59 61 60 56 53 50 50 49 47 46 44 42 41 39 34 33 34 33 31
5 7 9 7 3 0 1 3 4 5 10 14 17 20 19 18 22 30 36 39 44 52 61 64 62 63 67 68 67 64 60 57 56 56 57 54 50 50 49 45 44 45 44 41
6 8 8 5 2 1 2 4 7 13 23 30 31 29 28 30 34 37 39 44 50 58 68 70 68 71 76 77 76 73 67 65 65 67 67 63 59 57 56 54 54 54 52 49
6 7 6 3 1 2 4 6 11 22 33 38 37 36 37 42 43 40 40 45 52 60 68 72 74 78 83 85 82 77 71 69 70 70 70 67 62 57 56 59 61 58 53 49
5 5 5 4 3 5 7 9 16 26 31 31 32 34 35 36 38 40 43 48 53 60 64 68 73 79 83 84 81 76 72 69 69 67 66 65 60 54 54 60 62 57 50 46
3 3 3 5 5 6 9 11 15 20 20 20 23 26 27 26 29 36 44 48 51 57 61 63 68 73 75 75 73 70 68 67 64 63 62 62 56 52 53 56 53 48 44 40
1 1 1 3 4 5 7 8 9 10 12 15 19 23 25 25 26 32 38 42 45 51 56 59 63 66 65 64 64 63 63 63 62 61 59 57 51 48 48 46 40 34 30 27
0 0 0 1 2 2 3 3 3 4 8 14 19 24 26 26 27 29 34 37 39 43 48 50 55 58 57 56 56 56 57 58 59 58 56 50 43 38 36 32 26 21 15 11
0 0 0 0 1 1 1 1 1 1 6 12 19 23 25 27 27 28 32 35 36 40 43 45 48 52 52 50 51 52 53 54 55 55 54 47 38 32 26 20 16 10 5 3

GEFSCGP_con_probscp_132.txt.gz
Probability
0 0 0 0 0 0 0 0 0 0 1 2 3 7 13 19 29 39 43 43 42 37 31 29 26 20 17 18 20 21 21 19 16 14 8 5 4 4 3 3 3 2 1 0
0 0 0 0 0 0 0 0 0 0 0 1 2 6 12 19 27 37 42 42 39 34 30 27 24 19 16 16 15 15 16 14 11 8 5 3 3 3 3 3 2 1 0 0
0 0 0 0 0 0 0 0 0 0 0 0 1 4 9 15 23 33 40 41 35 30 27 24 20 17 14 12 9 9 9 8 5 3 1 0 1 1 1 2 1 0 0 0
0 0 0 0 0 0 0 0 0 0 0 0 1 2 5 11 18 26 35 35 29 26 24 20 16 14 11 8 7 6 6 5 3 1 0 0 0 0 0 0 0 0 0 0
0 0 0 0 0 0 0 0 0 0 0 0 0 0 2 7 13 20 25 25 23 21 18 14 13 12 9 6 5 5 6 4 3 1 0 0 0 0 0 0 0 0 0 0
0 0 0 0 0 0 0 0 0 0 0 0 0 0 1 4 8 15 19 19 18 16 13 10 11 11 9 6 4 4 5 5 2 1 0 0 0 0 0 0 0 0 0 0
0 0 0 0 0 0 0 0 0 0 0 0 0 0 0 1 5 11 16 15 14 13 10 8 10 12 10 7 5 4 5 4 1 0 0 0 0 0 0 0 0 0 0 0
0 0 0 0 0 0 0 0 0 0 0 0 0 0 0 1 4 9 14 14 12 12 10 9 11 13 11 9 6 4 3 2 1 0 0 0 0 0 0 0 0 0 0 0
0 0 0 0 0 0 0 0 0 0 0 0 0 0 0 1 3 8 11 13 12 11 11 10 10 11 11 11 7 3 1 1 0 0 0 0 0 0 0 0 0 0 0 0
0 0 0 0 0 0 0 0 0 0 0 0 0 0 0 0 2 6 9 10 10 10 10 9 7 8 10 11 8 3 0 0 0 1 1 0 0 0 0 0 0 0 0 0
0 0 0 0 0 0 0 0 0 0 0 0 0 0 0 0 1 4 6 6 7 9 9 7 6 7 8 9 7 3 1 1 1 2 2 1 0 0 0 0 0 0 0 0
0 0 0 0 0 0 0 0 0 0 0 0 0 0 0 0 1 3 4 4 5 10 11 8 5 6 6 6 5 3 2 3 3 3 2 1 0 0 0 0 0 0 0 0
0 0 0 0 0 0 0 0 0 0 0 0 0 0 0 0 1 2 3 3 6 10 12 9 6 5 4 5 6 5 4 4 3 3 3 1 0 0 0 0 0 0 0 0
0 0 0 0 0 0 0 0 0 0 0 0 0 0 0 0 1 2 3 4 6 10 12 11 8 5 5 6 7 6 5 4 3 3 3 2 1 0 0 0 0 0 0 0
0 0 0 0 0 0 0 0 0 0 0 0 0 0 0 1 1 2 3 5 7 9 11 13 11 8 7 8 8 7 6 5 4 3 3 3 1 0 0 0 0 0 0 0
0 0 0 0 0 0 0 1 0 0 0 0 0 0 0 1 1 2 3 6 8 8 10 13 12 9 9 9 9 9 8 7 6 5 4 3 3 2 1 1 1 1 1 1
0 0 0 0 0 0 0 1 1 1 1 1 0 0 1 2 3 4 4 5 6 6 8 11 11 9 8 10 10 11 12 12 11 9 7 6 5 5 4 3 2 2 2 3
0 0 0 0 0 0 0 1 2 2 2 2 1 1 3 5 8 9 8 5 5 6 9 11 11 8 7 8 10 13 16 17 15 13 11 9 9 8 6 5 4 4 4 4
0 0 0 0 0 0 0 1 2 2 2 1 1 2 6 9 12 14 12 8 6 7 10 13 12 8 6 7 10 15 19 19 17 16 15 14 14 13 10 8 8 7 7 7
0 0 0 0 0 0 0 1 2 2 2 1 1 2 6 9 12 15 17 14 11 11 13 14 14 12 9 9 13 17 19 18 18 18 18 17 17 15 12 13 12 11 11 9
0 0 0 0 0 0 0 1 1 2 1 1 1 2 4 6 9 13 18 18 16 15 16 17 17 15 12 12 15 17 17 16 17 19 19 16 15 13 11 12 13 13 11 9
0 0 0 0 0 0 0 0 0 0 0 0 1 2 2 4 8 12 16 18 17 16 17 17 16 14 14 15 16 15 14 14 16 18 16 13 11 10 9 9 10 11 10 9
0 0 0 0 0 0 0 0 0 0 0 1 2 3 4 6 10 13 15 16 15 15 15 15 14 13 14 15 13 11 11 12 13 13 12 12 12 11 9 8 7 8 8 8
0 0 0 0 0 0 0 0 0 0 1 3 5 6 6 8 11 13 14 14 13 13 13 13 12 12 13 12 10 7 7 8 10 11 10 11 11 10 8 6 5 6 7 6
0 0 0 0 0 0 0 0 0 0 2 4 5 6 6 8 9 11 11 10 10 10 11 12 12 13 13 10 7 6 6 7 10 12 12 11 9 7 4 3 2 3 4 4
0 0 0 0 0 0 0 0 0 0 1 2 4 4 4 6 8 8 7 7 8 9 10 12 13 13 13 10 7 6 7 7 10 13 13 11 8 4 1 1 1 1 1 1

GEFSCGP_con_probscp_138.txt.gz
Probability
0 0 0 0 0 0 0 0 0 0 0 0 0 1 3 9 15 16 16 21 27 27 25 23 22 19 19 20 19 19 18 12 9 9 6 3 1 0 0 0 1 2 2 3
0 0 0 0 0 0 0 0 0 0 0 0 0 1 3 8 14 15 15 20 26 28 26 25 24 21 19 18 18 18 15 10 7 7 5 3 2 0 0 0 1 1 2 3
0 0 0 0 0 0 0 0 0 0 0 0 0 0 2 7 11 13 14 17 23 27 26 25 24 20 16 14 14 13 9 6 5 5 4 4 2 0 0 0 0 1 1 2
0 0 0 0 0 0 0 0 0 0 0 0 0 0 1 4 7 9 12 15 19 23 23 23 21 17 14 11 10 7 3 3 3 3 3 3 2 1 0 0 0 0 1 1
0 0 0 0 0 0 0 0 0 0 0 0 0 0 1 2 3 6 9 14 17 19 18 18 16 13 11 9 5 2 1 1 1 1 1 1 1 1 0 0 0 0 0 0
0 0 0 0 0 0 0 0 0 0 0 0 0 0 0 1 1 3 7 12 16 16 14 13 11 9 8 6 3 0 0 0 0 0 0 0 0 0 0 0 0 0 0 0
0 0 0 0 0 0 0 0 0 0 0 0 0 0 0 0 1 2 5 9 13 14 12 10 8 7 6 4 2 0 0 0 0 0 0 0 0 0 0 0 0 0 0 0
0 0 0 0 0 0 0 0 0 0 0 0 0 0 0 0 0 1 3 7 11 12 11 9 7 6 5 4 2 1 0 0 0 0 0 0 0 0 0 0 0 0 0 0
0 0 0 0 0 0 0 0 0 0 0 0 0 0 0 0 0 0 2 6 9 10 10 7 6 6 4 3 2 1 0 0 0 0 0 0 0 0 0 0 0 0 0 0
0 0 0 0 0 0 0 0 0 0 0 0 0 0 0 0 0 0 2 4 7 8 7 6 6 6 5 4 3 1 0 0 0 0 0 0 0 0 0 0 0 0 0 0
0 0 0 0 0 0 0 0 0 0 0 0 0 0 0 0 0 0 1 3 5 5 6 6 5 5 5 4 3 2 1 0 0 0 0 0 0 0 0 0 0 0 0 0
0 0 0 0 0 0 0 0 0 0 0 0 0 0 0 0 0 0 1 2 2 2 4 6 5 4 4 3 4 4 1 0 0 0 0 0 0 0 0 0 0 0 0 0
0 0 0 0 0 0 0 0 0 0 0 0 0 0 0 0 0 0 0 1 1 1 3 4 3 3 2 3 4 5 2 0 0 0 0 0 0 0 0 0 0 0 0 0
0 0 0 0 0 0 0 0 0 0 0 0 0 0 0 0 1 1 1 1 1 0 1 2 1 1 2 3 4 4 3 1 0 1 0 0 1 1 1 1 0 0 0 0
0 0 0 0 0 0 0 0 0 0 0 0 0 0 0 0 1 2 2 2 2 2 1 1 0 1 2 3 3 4 3 1 0 0 0 1 2 2 2 2 1 0 0 0
0 0 0 0 0 0 0 0 0 0 0 0 0 0 0 0 0 1 2 3 3 3 2 2 1 2 3 4 3 3 2 1 0 0 1 2 3 3 3 3 2 1 0 0
0 0 0 0 0 0 0 0 0 0 0 0 0 0 0 0 1 1 1 2 3 3 2 2 3 4 6 6 4 3 2 1 0 0 1 2 3 3 3 3 3 2 1 0
0 0 0 0 0 0 0 0 0 0 0 0 1 0 0 1 2 2 2 1 1 1 1 2 3 5 7 7 5 3 1 0 1 1 1 3 4 4 4 4 3 3 2 1
0 0 0 0 0 0 0 0 0 0 0 0 0 0 0 1 2 3 2 1 0 0 0 1 3 6 8 8 6 2 0 1 2 3 3 4 5 6 6 5 4 3 3 3
0 0 0 0 0 0 0 0 0 0 0 0 0 0 0 1 2 1 1 0 0 0 0 0 2 6 9 8 6 2 1 2 3 4 6 7 7 7 7 6 4 3 3 3
0 0 0 0 0 0 0 0 0 0 0 0 0 1 1 2 1 0 0 0 0 1 1 0 2 5 7 7 5 3 2 2 3 4 7 8 9 8 7 6 5 4 3 3
0 0 0 0 0 0 0 0 0 0 0 0 0 1 2 2 1 0 0 0 1 1 1 0 1 3 5 5 5 3 2 1 2 3 5 7 8 9 8 6 4 3 3 3
0 0 0 0 0 0 0 0 0 0 0 0 0 1 1 1 0 0 0 0 1 1 1 0 0 2 3 4 4 3 1 1 1 1 3 4 6 8 9 6 4 3 2 2
0 0 0 0 0 0 0 0 0 0 0 0 0 0 0 0 0 0 0 0 0 1 1 1 0 1 2 3 3 1 1 1 1 1 2 3 4 6 7 6 4 1 1 1
0 0 0 0 0 0 0 0 0 0 0 0 0 0 0 0 0 0 0 0 0 1 1 1 0 1 3 4 3 1 0 0 1 1 2 2 3 4 5 4 3 1 0 0
0 0 0 0 0 0 0 0 0 0 0 0 0 0 0 0 0 0 0 0 1 1 1 1 0 1 3 4 3 1 0 0 0 1 1 1 2 3 3 3 2 1 0 0

GEFSCGP_con_probscp_144.txt.gz
Probability
0 0 0 0 0 0 0 0 0 0 0 0 0 0 0 1 3 6 10 14 18 25 32 35 35 34 36 41 45 46 47 47 46 42 41 39 34 29 23 17 12 8 5 4
0 0 0 0 0 0 0 0 0 0 0 0 0 0 1 1 3 6 10 14 16 21 29 33 34 34 36 38 39 40 43 42 40 39 41 41 36 28 21 17 14 10 5 4
0 0 0 0 0 0 0 0 0 0 0 0 0 1 2 2 2 4 9 13 15 16 21 26 29 30 33 33 30 30 34 33 31 33 36 36 32 24 17 15 14 9 4 2
0 0 0 0 0 0 0 0 0 0 0 0 0 1 1 1 1 3 7 13 16 16 15 17 20 23 26 27 24 25 29 29 27 28 28 27 23 19 16 14 13 8 3 1
0 0 0 0 0 0 0 0 0 0 0 0 0 0 0 0 0 2 5 11 15 16 13 12 15 19 20 21 22 25 29 28 26 25 23 20 18 18 17 15 13 10 5 2
0 0 0 0 0 0 0 0 0 0 0 0 0 0 0 0 0 0 3 8 14 15 14 14 17 19 18 18 21 25 26 25 22 19 17 16 17 18 17 14 13 11 7 3
0 0 0 0 0 0 0 0 0 0 0 0 0 0 0 0 0 0 1 5 10 12 11 13 18 20 19 18 20 22 21 18 13 10 10 11 14 16 14 11 11 9 6 3
0 0 0 0 0 0 0 0 0 0 0 0 0 0 0 0 0 0 0 3 6 7 8 10 14 16 17 17 18 19 17 12 8 6 7 8 12 15 13 10 9 7 4 2
0 0 0 0 0 0 0 0 0 0 0 0 0 0 0 0 0 0 0 3 5 5 6 9 11 11 11 13 14 14 12 9 7 7 8 8 10 12 11 9 7 6 4 3
0 0 0 0 0 0 0 0 0 0 0 0 0 0 0 0 0 0 0 3 5 5 5 9 12 10 8 8 10 11 10 7 5 6 6 6 7 8 9 7 4 3 3 2
0 0 0 0 0 0 0 0 0 0 0 0 0 0 0 0 0 0 0 1 3 3 5 9 13 12 9 8 9 9 8 6 5 4 4 4 5 5 6 5 3 1 1 0
0 0 0 0 0 0 0 0 0 0 0 0 0 0 0 0 0 0 0 0 1 2 5 9 13 13 11 10 9 8 7 6 6 4 3 3 4 5 5 5 3 1 0 0
0 0 0 0 0 0 0 0 0 0 0 0 0 0 0 0 0 0 0 1 1 2 4 8 11 12 12 11 9 7 6 6 5 4 4 4 6 8 8 7 4 2 1 1
1 0 0 0 0 0 0 0 0 0 0 0 0 0 0 0 0 0 1 2 3 4 6 8 10 11 12 11 9 7 6 6 5 5 5 7 9 10 10 8 6 4 3 3
3 2 0 0 0 0 0 0 0 0 0 0 0 0 0 0 1 2 2 3 5 8 9 11 12 11 10 11 12 10 9 8 7 7 8 10 12 13 13 11 8 6 5 4
4 4 2 0 0 0 0 0 0 0 0 0 0 0 0 1 2 3 4 5 7 10 13 15 15 14 12 14 15 15 13 12 11 10 10 12 14 15 14 12 9 7 6 6
3 4 4 1 0 0 0 1 2 1 1 1 1 0 1 2 3 4 5 6 7 10 14 18 18 16 16 17 18 18 18 17 15 12 11 12 15 16 14 11 10 10 9 9
1 3 4 2 0 0 1 3 5 4 3 2 2 2 2 3 4 5 4 5 6 7 11 17 19 17 17 17 18 19 20 19 17 14 12 13 15 15 14 13 13 15 15 14
0 1 3 2 1 0 1 3 5 5 4 3 3 3 3 4 4 4 3 5 6 7 8 12 17 18 19 20 21 23 23 21 19 17 17 17 18 17 18 18 20 22 23 22
0 1 2 2 1 0 1 1 2 3 3 3 3 3 4 5 5 4 4 5 9 11 11 11 15 19 24 29 32 32 30 26 23 22 22 24 25 24 24 25 26 27 28 28
0 0 1 1 0 0 0 1 2 3 4 3 2 3 4 6 7 7 7 8 12 17 19 18 18 21 28 36 41 39 35 31 28 27 29 31 32 31 30 31 32 32 32 31
0 0 0 0 0 0 0 1 2 3 4 2 1 2 4 6 7 6 6 9 14 20 23 23 24 25 30 38 42 40 37 35 35 35 36 38 38 36 36 38 37 35 35 33
0 0 0 0 0 1 1 1 2 2 2 1 1 1 3 4 4 3 4 7 12 18 22 22 25 29 33 36 37 36 38 42 44 44 44 44 43 41 41 42 41 37 33 29
0 0 0 0 0 1 1 1 1 1 1 0 0 1 1 1 1 1 2 4 7 13 19 21 23 27 32 33 32 34 41 48 50 50 49 48 46 44 42 40 36 32 28 23
0 0 0 1 1 1 2 2 1 1 0 0 0 0 0 0 0 0 1 3 5 10 15 18 20 22 26 29 31 36 44 50 50 49 48 45 41 38 34 27 21 18 18 17
0 0 1 2 2 1 1 1 1 0 0 0 0 0 0 0 0 0 1 3 6 9 12 16 18 18 21 27 31 36 44 49 49 46 44 40 34 31 25 16 9 8 9 10

GEFSCGP_con_probscp_150.txt.gz
Probability
0 0 0 0 0 0 0 0 0 0 0 0 0 0 1 3 4 7 16 31 50 66 71 67 65 64 61 61 61 61 59 57 57 56 57 58 55 49 46 46 47 42 33 28
0 0 0 0 0 0 0 0 0 0 0 0 0 0 1 3 4 6 14 28 46 64 72 68 64 61 60 59 59 58 56 55 54 55 56 56 53 47 42 43 45 41 35 30
0 0 0 0 0 0 0 0 0 0 0 0 0 0 1 2 3 5 11 22 39 59 70 67 61 58 56 56 56 54 51 51 52 53 53 52 50 43 37 39 42 40 35 32
0 0 0 0 0 0 0 0 0 0 0 0 0 1 2 3 4 5 9 18 35 53 63 63 58 55 53 52 52 49 47 48 50 50 51 51 47 40 35 38 41 37 32 28
0 0 0 0 0 0 0 0 0 0 0 0 0 1 2 3 5 6 9 18 34 52 59 58 54 51 49 48 46 43 42 43 45 46 49 50 46 39 36 39 41 36 29 26
0 0 0 0 0 0 0 0 0 0 0 0 0 1 2 3 4 6 10 18 33 49 55 53 49 45 44 42 40 38 37 38 39 40 44 45 42 39 37 37 37 32 27 25
0 0 0 0 0 0 0 0 0 0 0 0 0 0 1 3 3 4 9 17 28 40 47 48 46 40 37 36 35 34 34 33 33 34 37 38 36 35 34 32 31 28 24 22
0 0 0 0 0 0 0 0 0 0 0 0 0 0 1 3 3 3 7 13 20 28 35 40 42 38 33 32 33 35 34 30 29 31 34 34 31 29 27 26 27 26 22 20
0 0 0 0 0 0 0 0 0 0 0 0 0 0 1 3 3 3 7 12 16 21 27 32 36 35 32 31 34 36 34 29 29 31 32 31 28 26 24 23 23 23 21 18
0 0 0 0 0 0 0 0 0 0 0 0 0 0 2 4 4 4 8 14 17 20 25 30 32 33 32 32 34 34 33 31 29 28 26 25 24 25 26 21 19 21 21 20
0 0 0 0 0 0 0 0 0 0 0 0 0 0 2 4 5 5 8 15 19 21 26 31 33 33 33 34 35 34 33 31 25 21 19 18 18 21 22 18 17 20 23 24
0 0 0 0 0 0 0 0 0 0 0 0 0 1 2 4 5 5 9 15 18 21 27 32 34 35 36 36 35 36 35 28 20 15 13 13 13 15 15 14 16 19 21 22
0 0 0 0 0 0 0 0 0 0 0 0 0 1 2 3 5 7 9 14 16 21 28 35 38 39 40 40 36 35 35 28 18 12 10 11 12 13 14 14 16 18 18 16
0 0 0 0 0 0 0 0 0 0 0 0 0 1 3 5 8 9 10 11 16 23 30 37 43 44 44 44 39 36 33 28 22 16 13 13 15 17 17 17 18 19 16 13
1 1 0 0 0 0 0 0 0 0 0 0 1 4 7 9 11 11 9 11 16 23 30 37 43 45 46 46 42 37 32 30 28 24 19 18 19 20 20 19 19 20 15 10
2 3 2 0 0 0 0 0 0 0 0 1 3 7 9 10 11 11 11 15 19 25 31 36 41 45 47 48 45 39 35 35 34 30 26 24 23 22 22 20 21 22 19 16
6 6 4 1 0 0 0 1 1 2 2 3 7 12 14 13 13 14 17 21 24 27 32 38 44 48 50 51 47 40 36 38 39 35 31 31 30 27 25 24 25 26 26 26
8 8 6 2 0 0 1 3 3 4 6 6 10 17 19 18 16 18 23 27 26 26 29 37 45 51 53 52 46 39 37 39 40 38 36 37 36 34 31 31 31 33 33 33
9 8 6 3 1 0 2 4 4 5 9 11 13 17 17 17 17 20 26 28 26 23 25 32 39 47 54 56 50 42 39 40 40 39 39 41 40 37 35 35 37 38 38 37
8 7 5 2 1 0 3 6 5 6 10 15 18 17 15 16 19 22 25 26 25 22 22 26 31 40 51 60 60 51 45 44 45 45 45 47 45 40 38 40 41 41 40 39
5 4 3 1 0 1 5 7 7 10 15 18 18 17 17 18 21 23 22 21 22 22 20 22 28 35 45 56 62 59 53 52 54 55 54 53 49 44 43 45 45 43 39 37
4 3 3 3 3 6 11 12 12 17 20 15 12 12 13 16 18 18 18 17 18 18 18 22 28 35 41 47 55 59 58 59 62 64 63 61 56 48 45 49 49 43 37 35
4 5 7 8 9 11 15 16 16 17 16 11 7 7 8 9 11 12 13 15 15 15 16 21 26 32 38 43 48 53 57 60 63 64 65 66 62 53 49 51 47 39 33 29
4 5 7 9 9 10 11 11 11 11 11 9 7 7 7 7 7 9 11 13 14 15 16 19 22 26 33 38 41 45 51 55 57 59 60 62 59 54 50 47 38 29 24 21
2 2 3 4 4 5 5 5 5 6 7 7 6 6 7 6 6 7 9 10 13 15 16 17 19 23 26 30 34 38 44 49 53 55 54 52 50 45 40 34 24 16 12 10
2 2 1 1 1 2 4 5 4 2 4 6 5 4 3 3 4 5 6 8 11 14 16 17 19 22 24 26 30 36 41 46 51 52 48 45 43 38 30 23 14 7 4 3

GEFSCGP_con_probscp_156.txt.gz
Probability
0 0 0 0 0 0 0 0 0 0 0 0 0 1 4 7 12 19 33 48 53 50 47 47 48 50 51 51 48 44 40 36 34 34 32 30 28 22 17 12 9 8 8 7
0 0 0 0 0 0 0 0 0 0 0 0 0 1 4 8 11 18 31 47 56 56 53 51 50 50 52 52 49 45 41 38 35 34 30 27 24 21 17 13 10 9 9 7
0 0 0 0 0 0 0 0 0 0 0 0 0 1 4 8 12 17 28 42 55 59 59 57 53 51 53 53 51 47 44 41 37 32 27 23 20 18 16 14 12 10 9 8
0 0 0 0 0 0 0 0 0 0 0 0 0 1 3 8 13 17 24 36 46 53 56 56 53 51 52 53 51 48 45 42 36 29 23 19 16 13 13 14 13 11 9 7
0 0 0 0 0 0 0 0 0 0 0 0 0 0 2 7 11 14 19 29 38 44 47 48 49 50 51 51 49 46 43 39 33 25 18 14 10 7 8 12 13 12 9 6
0 0 0 0 0 0 0 0 0 0 0 0 0 0 1 5 8 10 15 23 33 39 40 42 45 48 49 49 47 44 39 34 28 21 14 9 5 3 6 10 12 13 10 8
0 0 0 0 0 0 0 0 0 0 0 0 0 0 0 2 6 10 14 21 29 35 35 36 39 42 42 42 41 39 35 30 24 18 12 7 3 2 4 7 8 9 9 8
0 0 0 0 0 0 0 0 0 0 0 0 0 0 1 3 7 12 17 21 25 26 25 26 31 32 32 32 33 33 31 26 20 14 9 6 4 2 2 2 3 4 5 6
0 0 0 0 0 0 0 0 0 0 0 0 0 0 2 4 9 14 18 21 21 18 16 19 23 25 24 24 26 28 27 23 18 13 9 7 5 3 2 1 0 1 3 4
0 0 0 0 0 0 0 0 0 0 0 0 0 0 1 3 7 12 16 17 15 13 12 14 18 20 21 21 22 23 21 18 16 14 12 10 8 6 3 2 0 0 1 2
0 0 0 0 0 0 0 0 0 0 0 0 0 0 0 1 4 7 11 12 11 10 10 10 14 17 18 19 21 21 19 15 13 13 12 11 10 8 5 2 0 0 0 1
0 0 0 0 0 0 0 0 0 0 0 0 0 0 0 1 2 4 7 10 9 9 8 8 11 15 17 19 22 23 20 15 10 8 8 9 9 8 5 1 0 0 0 0
0 0 0 0 0 0 0 0 0 0 0 0 0 0 0 1 2 4 7 9 9 9 9 9 10 13 15 18 22 23 20 15 9 5 5 5 6 6 3 1 0 0 0 0
0 0 0 0 0 0 0 0 0 0 0 0 0 0 1 2 3 5 7 10 12 12 11 10 11 13 14 16 19 20 17 13 8 5 4 3 3 3 1 0 0 0 0 0
0 0 0 0 0 0 0 1 1 1 0 0 1 1 3 4 5 6 8 12 15 15 13 11 12 13 12 13 16 17 14 11 8 7 5 4 3 2 1 0 0 0 0 0
0 0 0 0 0 0 0 1 2 2 1 1 2 3 5 6 7 8 10 12 16 16 14 13 13 11 9 11 13 13 12 11 11 10 8 5 3 3 2 1 1 0 0 0
0 0 0 0 0 0 1 2 3 3 2 3 4 5 6 7 8 8 9 11 14 16 16 15 13 10 8 7 8 8 10 13 15 14 12 9 6 4 4 3 2 1 1 1
0 0 0 0 0 1 2 3 3 4 4 5 5 5 5 7 8 9 9 10 11 14 15 14 12 10 9 7 5 5 8 12 16 17 16 13 10 7 6 5 4 4 4 4
0 0 0 0 0 2 4 5 4 4 5 5 4 4 6 8 11 11 11 10 10 10 11 12 11 9 10 9 7 6 7 9 12 15 15 14 12 10 9 9 7 6 6 6
0 0 0 0 0 1 4 5 3 3 3 4 4 4 7 9 10 11 11 10 10 8 8 9 10 10 10 10 8 7 6 7 8 10 12 13 13 13 13 12 11 8 7 6
0 0 0 0 0 0 3 4 2 1 2 3 3 4 6 7 8 9 8 7 7 7 8 9 10 11 11 11 9 6 5 5 6 8 10 11 12 12 13 12 11 11 10 9
0 0 1 1 1 1 2 2 1 1 2 3 2 3 4 5 5 5 4 2 4 6 9 10 11 11 11 11 8 5 4 4 6 8 10 9 9 10 11 11 11 13 13 12
1 1 2 2 1 1 1 1 1 1 2 2 1 1 2 2 2 1 1 1 3 5 8 10 11 11 11 10 7 5 4 4 5 7 9 9 8 10 11 10 10 11 12 11
1 1 2 3 1 1 1 1 1 1 1 1 1 0 1 1 0 1 1 2 2 3 5 8 10 10 9 8 7 5 4 5 4 5 8 8 9 10 10 9 9 8 8 8
1 1 2 2 1 1 1 1 0 1 1 2 1 0 0 0 1 2 2 1 1 1 3 5 7 7 7 6 6 5 5 5 5 5 7 9 9 9 8 7 5 4 4 5
0 0 1 1 1 1 1 0 0 0 1 1 1 0 0 1 2 3 2 1 0 0 2 4 5 5 6 6 6 5 5 5 5 6 7 9 10 9 7 5 3 2 2 2

GEFSCGP_con_probscp_162.txt.gz
Probability
0 0 0 0 0 0 0 0 0 0 0 0 0 0 1 4 6 10 14 18 19 17 18 22 29 36 34 28 26 25 21 17 15 14 13 11 9 7 4 1 0 0 0 0
0 0 0 0 0 0 0 0 0 0 0 0 0 0 1 3 5 8 12 16 20 22 23 24 30 38 39 34 31 28 25 20 17 15 13 10 8 6 4 2 2 1 0 1
0 0 0 0 0 0 0 0 0 0 0 0 0 1 2 3 4 6 9 14 20 25 27 27 32 40 45 44 41 35 31 27 23 20 16 11 7 5 4 4 3 2 1 1
0 0 0 0 0 0 0 0 0 0 0 0 0 1 1 2 4 6 8 12 17 24 27 29 33 42 48 50 48 43 38 34 30 26 22 17 10 5 4 4 3 1 0 1
0 0 0 0 0 0 0 0 0 0 0 0 0 0 0 1 4 6 8 11 15 20 26 29 33 39 43 46 48 46 43 39 33 27 24 20 12 6 5 5 3 2 1 1
0 0 0 0 0 0 0 0 0 0 0 0 0 0 0 1 3 6 8 10 13 19 24 26 28 31 32 35 41 43 42 38 32 26 22 17 11 6 4 5 5 5 4 3
0 0 0 0 0 0 0 0 0 0 0 0 0 0 0 0 2 4 7 10 13 19 24 23 21 22 24 26 31 34 32 30 28 24 19 13 8 5 4 5 7 6 5 4
0 0 0 0 0 0 0 0 0 0 0 0 0 0 0 0 0 1 5 10 15 19 23 22 19 18 17 19 23 25 23 22 22 21 17 11 6 4 4 6 7 6 4 2
0 0 0 0 0 0 0 0 0 0 0 0 0 0 0 0 0 0 3 8 14 18 19 18 18 16 14 13 16 18 18 17 17 16 14 10 6 4 4 5 6 5 2 1
0 0 0 0 0 0 0 0 0 0 0 0 0 0 0 0 0 0 3 7 11 13 13 12 13 14 12 10 10 13 15 14 14 12 11 9 7 5 4 3 3 3 1 1
0 0 0 0 0 0 0 0 0 0 0 0 0 0 0 0 0 0 2 6 8 10 8 7 9 11 11 9 7 8 10 11 11 9 8 8 7 5 4 3 2 1 0 1
0 0 0 0 0 0 0 0 0 0 0 0 0 0 0 0 0 1 2 5 8 8 7 7 8 9 8 7 4 4 7 9 9 8 7 6 5 4 4 4 3 1 0 0
0 0 0 0 0 0 0 0 0 0 0 0 0 0 0 1 1 2 3 6 8 8 7 7 8 8 7 5 2 2 5 8 9 8 7 5 4 3 3 3 2 1 0 0
0 0 0 0 0 0 0 0 0 0 0 0 0 0 0 1 2 3 4 6 7 7 7 6 6 6 5 3 1 2 4 6 6 6 4 2 1 1 1 1 1 0 0 0
0 0 1 1 0 0 0 0 0 0 0 0 0 0 0 0 1 3 5 6 7 7 6 5 4 3 2 2 3 3 3 3 3 3 1 0 0 0 0 0 1 0 0 0
0 0 1 1 0 0 0 0 0 0 0 0 0 0 0 0 1 4 5 5 6 6 4 3 3 2 2 2 4 5 3 1 0 0 0 0 0 0 0 0 0 0 0 0
0 0 1 1 0 0 0 0 0 0 0 0 0 1 1 0 1 3 4 3 4 3 2 1 1 1 1 3 5 4 3 1 0 0 0 0 0 0 0 0 0 0 0 0
0 0 0 0 0 0 0 0 0 0 0 0 1 2 3 1 1 2 3 2 1 1 0 0 0 0 1 3 4 3 2 1 0 0 0 0 0 0 0 0 0 0 0 0
0 0 0 0 0 0 0 0 0 0 0 0 1 2 3 2 1 2 2 2 1 0 0 0 0 0 1 2 3 2 1 1 0 0 0 0 0 1 1 0 0 0 0 0
0 0 0 0 0 0 0 0 0 0 0 0 1 1 2 1 1 1 2 3 2 1 0 0 0 0 0 1 1 1 0 0 0 0 1 1 1 2 2 1 1 1 2 1
0 0 0 0 0 0 1 1 1 0 0 0 0 1 2 2 2 1 2 2 2 1 1 0 0 0 0 0 0 0 0 0 0 1 2 2 3 3 3 3 2 3 3 3
1 0 0 0 0 0 1 1 1 0 0 0 0 1 2 3 3 2 1 1 1 1 0 0 0 0 0 0 0 0 0 0 1 2 3 3 3 3 3 3 3 3 3 3
2 1 1 1 1 1 0 0 0 0 0 0 0 0 0 1 2 2 1 0 0 0 0 0 0 0 0 0 0 0 1 1 1 2 2 2 3 3 3 3 3 3 3 3
3 2 2 2 2 1 0 0 0 1 1 0 0 0 0 0 0 0 0 0 0 0 0 1 1 2 1 1 1 1 2 2 3 2 1 1 2 3 3 3 3 3 3 3
2 1 1 1 1 1 0 0 0 1 1 0 0 0 0 0 0 0 0 0 0 0 0 1 2 2 2 2 1 2 3 3 3 2 1 0 1 1 2 3 3 3 2 2
1 0 0 0 0 0 0 0 0 1 1 0 0 0 0 0 0 0 0 0 0 0 0 1 1 1 1 1 1 2 3 3 3 1 0 0 0 0 1 3 3 2 1 1

GEFSCGP_con_probscp_168.txt.gz
Probability
0 0 0 0 0 0 0 0 0 0 0 0 0 0 0 0 0 0 1 3 7 14 23 29 31 31 31 31 30 28 28 29 30 29 28 26 21 16 13 12 13 14 14 13
0 0 0 0 0 0 0 0 0 0 0 0 0 0 0 0 0 0 1 2 5 13 23 29 31 32 33 33 31 31 32 34 35 34 33 31 27 21 16 15 15 16 17 19
0 0 0 0 0 0 0 0 0 0 0 0 0 0 0 0 0 1 3 3 4 10 20 27 30 32 34 33 32 32 36 40 41 39 35 32 31 28 22 19 18 19 21 23
0 0 0 0 0 0 0 0 0 0 0 0 0 0 0 0 1 4 6 7 7 9 16 23 27 30 32 32 30 32 39 45 45 42 36 30 28 28 26 24 22 23 23 23
0 0 0 0 0 0 0 0 0 0 0 0 0 0 0 1 3 7 10 11 10 12 15 19 24 31 33 31 30 32 40 47 49 46 40 32 26 25 26 26 25 25 24 23
0 0 0 0 0 0 0 0 0 0 0 0 0 0 1 3 6 10 13 14 14 15 18 21 26 33 36 34 33 35 40 47 48 45 40 33 27 25 24 24 25 24 24 24
0 0 0 0 0 0 0 0 0 0 0 0 0 0 2 5 8 11 14 16 16 16 20 25 30 36 38 36 36 37 41 44 44 40 37 32 29 26 23 20 20 20 21 22
0 0 0 0 0 0 0 0 0 0 0 0 0 2 4 5 8 10 13 15 16 18 20 26 32 34 34 32 32 33 36 39 39 36 33 31 28 23 18 14 14 16 18 18
0 0 0 0 0 0 0 0 0 0 0 0 0 2 4 5 6 8 9 12 15 16 19 24 28 29 29 27 27 28 30 32 33 32 28 26 24 20 14 10 10 14 17 16
0 0 0 0 0 0 0 0 0 0 0 0 0 1 4 6 7 7 8 10 12 13 15 20 26 27 26 26 27 28 29 29 29 28 23 18 18 18 15 11 10 14 17 16
0 0 0 0 0 0 0 0 0 0 0 0 0 1 5 8 8 7 7 8 10 12 13 19 26 29 30 30 29 28 27 25 24 21 16 14 14 14 14 12 11 13 16 16
0 0 0 0 0 0 0 0 0 0 0 0 0 2 5 8 9 8 7 7 10 13 17 22 27 31 34 33 30 25 20 17 14 11 10 11 12 12 11 10 10 13 15 16
0 0 0 0 0 0 0 0 0 0 0 0 0 1 4 8 10 11 9 8 11 16 22 24 25 27 29 28 23 18 14 9 6 4 6 10 12 11 10 9 11 14 16 15
0 0 0 0 0 0 0 0 0 0 0 0 0 0 3 6 10 13 13 10 11 16 20 22 23 23 22 19 14 10 8 5 4 4 7 9 10 10 9 9 12 14 14 13
1 0 0 0 0 0 0 0 0 0 0 0 0 1 4 7 11 15 16 12 12 14 16 18 19 19 17 13 9 5 4 4 5 7 8 8 9 9 10 10 10 12 12 11
3 1 0 0 0 0 1 0 0 0 0 0 1 3 8 12 15 17 16 14 15 15 15 15 15 16 15 11 7 5 4 4 7 9 9 8 9 10 11 10 8 8 9 10
6 5 2 0 0 1 2 1 0 1 1 1 2 5 10 15 18 17 16 17 19 17 16 14 13 14 13 8 6 5 4 5 7 8 8 8 9 10 10 8 7 7 7 8
10 8 4 1 0 1 2 1 1 3 4 6 6 8 13 18 19 19 19 22 23 20 18 16 14 13 10 7 6 6 5 5 5 6 7 9 9 9 9 7 6 6 5 5
12 10 4 0 0 0 1 2 3 5 8 9 11 14 18 20 20 21 22 23 22 19 17 15 13 10 9 9 9 9 8 7 6 8 10 10 10 10 8 7 5 5 5 5
8 7 3 0 0 1 2 3 4 6 8 9 14 18 19 19 21 22 20 18 16 14 11 9 8 7 8 11 13 13 12 11 10 11 11 12 12 11 9 7 6 6 7 6
6 6 3 1 1 2 3 4 8 11 13 13 16 19 19 21 24 22 18 14 12 10 7 5 5 5 6 10 13 13 13 12 12 11 10 11 11 11 10 10 10 9 9 8
9 9 7 4 3 2 5 10 16 19 19 19 19 19 21 24 23 19 16 14 12 10 7 4 4 5 7 9 10 11 11 11 11 9 9 9 10 10 10 12 12 11 10 9
11 13 11 7 4 2 6 14 19 20 21 22 22 21 21 19 14 11 11 10 10 9 7 5 5 6 8 9 10 10 10 10 9 9 9 9 9 9 10 12 13 11 9 8
7 10 11 7 3 2 5 10 14 17 19 22 22 19 15 11 6 4 4 4 6 7 7 7 7 7 7 9 9 10 10 10 10 10 10 9 8 8 9 10 10 9 8 7
2 5 8 6 3 3 4 7 11 16 20 21 18 12 8 5 2 1 1 1 2 5 7 8 8 7 7 7 8 9 9 9 10 12 12 10 8 8 9 9 8 6 6 6
1 4 6 6 5 4 6 9 13 17 19 19 13 7 3 1 0 0 0 0 1 4 6 8 7 7 6 7 7 8 8 9 11 13 13 11 9 9 9 8 7 4 3 4